CW0762 Weather Reports


time (UTC)temp
C
wind
direction
speed
KPH
gust
KPH
rain 1hr
cm
rain 24hr
cm
rain mn
cm
humidity
%
barometer
mb
20260906223053 37 58 1.6 9.7 0.00 0.00 0.00 37 1010.8
20260906221555 37 27 0.0 6.4 0.00 0.00 0.00 37 1010.9
20260906220051 37 49 0.0 11.3 0.00 0.00 0.00 37 1010.8
20260906214551 37 40 0.0 6.4 0.00 0.00 0.00 39 1010.9
20260906213056 37 285 0.0 8.0 0.00 0.00 0.00 40 1011.2
20260906211549 36 28 0.0 6.4 0.00 0.00 0.00 40 1011.4
20260906210045 37 333 0.0 6.4 0.00 0.00 0.00 39 1011.7
20260906204601 37 40 0.0 6.4 0.00 0.00 0.00 39 1011.9
20260906203043 37 340 0.0 12.9 0.00 0.00 0.00 40 1012.0
20260906201557 36 9 0.0 4.8 0.00 0.00 0.00 41 1012.2
20260906200041 37 38 3.2 11.3 0.00 0.00 0.00 42 1012.4
20260906194540 36 337 1.6 8.0 0.00 0.00 0.00 42 1012.4
20260906193040 37 57 1.6 6.4 0.00 0.00 0.00 40 1012.6
20260906191538 37 192 0.0 4.8 0.00 0.00 0.00 42 1012.8
20260906190036 37 49 1.6 8.0 0.00 0.00 0.00 41 1012.8
20260906184536 37 44 1.6 11.3 0.00 0.00 0.00 42 1013.0
20260906183037 37 37 1.6 11.3 0.00 0.00 0.00 43 1013.3
20260906181535 37 66 0.0 11.3 0.00 0.00 0.00 44 1013.4
20260906180039 37 18 0.0 3.2 0.00 0.00 0.00 45 1013.5
20260906174529 36 51 1.6 8.0 0.00 0.00 0.00 47 1013.9
20260906173028 36 56 1.6 9.7 0.00 0.00 0.00 48 1014.2
20260906171526 36 73 1.6 6.4 0.00 0.00 0.00 49 1014.3
20260906170024 35 355 0.0 3.2 0.00 0.00 0.00 50 1014.4
20260906164521 35 53 0.0 6.4 0.00 0.00 0.00 53 1014.7
20260906163018 34 20 0.0 8.0 0.00 0.00 0.00 53 1014.7
20260906161520 33 46 0.0 8.0 0.00 0.00 0.00 56 1014.7
20260906160010 33 14 0.0 3.2 0.00 0.00 0.00 58 1014.7
20260906154507 32 332 0.0 6.4 0.00 0.00 0.00 60 1014.7
20260906153003 31 345 0.0 3.2 0.00 0.00 0.00 63 1014.5
20260906151558 30 338 0.0 4.8 0.00 0.00 0.00 67 1014.3
20260906150104 30 331 0.0 3.2 0.00 0.00 0.00 70 1014.2
20260906144554 28 337 0.0 3.2 0.00 0.00 0.00 73 1014.2
20260906143104 28 54 0.0 1.6 0.00 0.00 0.00 78 1014.1
20260906141600 27 54 0.0 3.2 0.00 0.00 0.00 81 1014.3
20260906140058 26 55 0.0 3.2 0.00 0.00 0.00 83 1014.3
20260906134551 26 56 0.0 0.0 0.00 0.00 0.00 85 1014.3
20260906133050 25 56 0.0 1.6 0.00 0.00 0.00 86 1014.3
20260906131555 25 56 0.0 1.6 0.00 0.00 0.00 87 1014.3
20260906130055 25 56 0.0 0.0 0.00 0.00 0.00 85 1014.1
20260906124547 25 56 0.0 0.0 0.00 0.00 0.00 84 1014.0
20260906123047 25 56 0.0 0.0 0.00 0.00 0.00 84 1013.9
20260906121544 25 56 0.0 0.0 0.00 0.00 0.00 84 1013.8
20260906120041 25 56 0.0 0.0 0.00 0.00 0.00 82 1013.7
20260906114547 25 56 0.0 0.0 0.00 0.00 0.00 82 1013.5
20260906113038 25 56 0.0 0.0 0.00 0.00 0.00 81 1013.4
20260906111546 25 56 0.0 0.0 0.00 0.00 0.00 80 1013.3
20260906110034 26 56 0.0 0.0 0.00 0.00 0.00 80 1013.3
20260906104541 26 56 0.0 0.0 0.00 0.00 0.00 78 1013.0
20260906103044 26 56 0.0 0.0 0.00 0.00 0.00 77 1012.9
20260906101534 26 56 0.0 0.0 0.00 0.00 0.00 76 1013.0
20260906100029 27 56 0.0 0.0 0.00 0.00 0.00 76 1012.9
20260906094532 27 56 0.0 0.0 0.00 0.00 0.00 75 1012.6
20260906093035 27 56 0.0 0.0 0.00 0.00 0.00 75 1012.5
20260906091531 27 56 0.0 1.6 0.00 0.00 0.00 74 1012.5
20260906090022 27 55 0.0 3.2 0.00 0.00 0.00 75 1012.4
20260906084521 27 55 0.0 4.8 0.00 0.00 0.00 75 1012.3
20260906083019 27 55 0.0 1.6 0.00 0.00 0.00 74 1012.3
20260906081519 27 55 0.0 3.2 0.00 0.00 0.00 74 1012.2
20260906080018 28 55 0.0 1.6 0.00 0.00 0.00 72 1012.3
20260906074515 28 55 0.0 1.6 0.00 0.00 0.00 71 1012.3
20260906073012 28 55 0.0 1.6 0.00 0.00 0.00 70 1012.5
20260906071510 28 55 0.0 1.6 0.00 0.00 0.00 70 1012.7
20260906070019 28 55 0.0 1.6 0.00 0.00 0.00 69 1012.7
20260906064508 28 55 0.0 1.6 0.00 0.00 0.00 68 1012.8
20260906063007 28 55 0.0 3.2 0.00 0.00 0.00 67 1012.6
20260906061510 28 56 0.0 4.8 0.00 0.00 0.00 67 1012.6
20260906060005 29 52 0.0 3.2 0.00 0.00 0.00 66 1012.7
20260906054502 29 52 0.0 1.6 0.00 0.00 0.00 65 1012.7
20260906053003 29 52 0.0 3.2 0.00 0.00 0.00 64 1012.7
20260906051559 30 53 0.0 4.8 0.00 0.00 0.00 64 1012.8
20260906050104 30 53 0.0 1.6 0.00 0.00 0.00 63 1012.9
20260906044555 30 51 0.0 4.8 0.00 0.00 0.00 62 1012.8
20260906043055 30 53 1.6 4.8 0.00 0.00 0.00 62 1012.7
20260906041555 30 46 1.6 6.4 0.00 0.00 0.00 61 1012.7
20260906034555 30 34 0.0 0.0 0.00 0.00 0.00 59 1012.7
20260906033059 31 34 0.0 3.2 0.00 0.00 0.00 58 1012.6
20260906031610 31 33 0.0 6.4 0.00 0.00 0.00 58 1012.7
20260906030054 31 62 1.6 6.4 0.00 0.00 0.00 57 1012.8
20260906024601 31 59 1.6 12.9 0.00 0.00 0.00 56 1012.6
20260906023059 31 61 3.2 6.4 0.00 0.00 0.00 55 1012.3
20260906021552 32 61 1.6 4.8 0.00 0.00 0.00 55 1012.0
20260906020051 32 52 1.6 6.4 0.00 0.00 0.00 54 1011.9
20260906014554 33 60 1.6 11.3 0.00 0.00 0.00 51 1011.8
20260906013051 33 5 3.2 11.3 0.00 0.00 0.00 48 1011.3
20260906011551 34 62 0.0 1.6 0.00 0.00 0.00 44 1010.8
20260906010052 35 62 0.0 3.2 0.00 0.00 0.00 42 1010.7
20260906004549 35 63 1.6 8.0 0.00 0.00 0.00 41 1010.7
20260906003049 35 47 1.6 8.0 0.00 0.00 0.00 40 1010.7
20260906001548 36 17 0.0 4.8 0.00 0.00 0.00 40 1010.7
20260906000058 36 12 0.0 6.4 0.00 0.00 0.00 40 1010.6
20260905234553 36 355 0.0 1.6 0.00 0.00 0.00 39 1010.5
20260905233051 36 30 0.0 4.8 0.00 0.00 0.00 38 1010.4
20260905231547 37 327 0.0 4.8 0.00 0.00 0.00 38 1010.5
20260905230046 37 316 0.0 4.8 0.00 0.00 0.00 38 1010.4